Time,TemperatureF,DewpointF,PressureIn,WindDirection,WindDirectionDegrees,WindSpeedMPH,WindSpeedGustMPH,Humidity,HourlyPrecipIn,Conditions,Clouds,dailyrainin,SoftwareType,DateUTC
2013-04-26 00:00:00,70.6,63.0,30.20,South,180,0.0,0.0,77,0.00,,---,0.00,VWS V14.00,2013-04-26 04:00:00,
2013-04-26 00:30:00,69.4,63.0,30.20,South,180,0.0,0.0,80,0.00,,---,0.00,VWS V14.00,2013-04-26 04:30:00,
2013-04-26 01:00:00,69.3,63.2,30.20,South,180,0.0,0.0,81,0.00,,---,0.00,VWS V14.00,2013-04-26 05:00:00,
2013-04-26 01:30:00,68.5,62.8,30.19,South,180,0.0,0.0,82,0.00,,---,0.00,VWS V14.00,2013-04-26 05:30:00,
2013-04-26 02:00:00,67.4,62.4,30.18,South,180,0.0,0.0,84,0.00,,---,0.00,VWS V14.00,2013-04-26 06:00:00,
2013-04-26 02:30:00,66.5,62.2,30.17,South,180,0.0,0.0,86,0.00,,---,0.00,VWS V14.00,2013-04-26 06:30:00,
2013-04-26 03:00:00,65.8,62.2,30.17,South,180,0.0,0.0,88,0.00,,---,0.00,VWS V14.00,2013-04-26 07:00:00,
2013-04-26 03:30:00,65.4,62.1,30.16,South,180,0.0,0.0,89,0.00,,---,0.00,VWS V14.00,2013-04-26 07:30:00,
2013-04-26 04:00:00,64.9,61.9,30.16,South,180,0.0,0.0,90,0.00,,---,0.00,VWS V14.00,2013-04-26 08:00:00,
2013-04-26 04:30:00,64.3,61.6,30.16,South,180,0.0,0.0,91,0.00,,---,0.00,VWS V14.00,2013-04-26 08:30:00,
2013-04-26 05:00:00,63.9,61.5,30.16,South,180,0.0,0.0,92,0.00,,---,0.00,VWS V14.00,2013-04-26 09:00:00,
2013-04-26 05:30:00,63.3,60.9,30.16,South,180,0.0,0.0,92,0.00,,---,0.00,VWS V14.00,2013-04-26 09:30:00,
2013-04-26 06:00:00,63.0,61.0,30.17,South,180,0.0,0.0,93,0.00,,---,0.00,VWS V14.00,2013-04-26 10:00:00,
2013-04-26 06:30:00,62.7,60.7,30.17,South,180,0.0,0.0,93,0.00,,---,0.00,VWS V14.00,2013-04-26 10:30:00,
2013-04-26 07:00:00,62.3,60.2,30.18,South,180,0.0,0.0,93,0.00,,---,0.00,VWS V14.00,2013-04-26 11:00:00,
2013-04-26 07:30:00,62.6,60.8,30.19,South,180,0.0,0.0,94,0.00,,---,0.00,VWS V14.00,2013-04-26 11:30:00,
2013-04-26 08:00:00,64.3,62.5,30.20,South,180,0.0,0.0,94,0.00,,---,0.00,VWS V14.00,2013-04-26 12:00:00,
2013-04-26 08:30:00,66.5,64.7,30.22,South,180,0.0,0.0,94,0.00,,---,0.00,VWS V14.00,2013-04-26 12:30:00,
2013-04-26 09:00:00,69.7,66.0,30.22,SSE,158,0.0,3.0,88,0.00,,---,0.00,VWS V14.00,2013-04-26 13:00:00,
2013-04-26 09:30:00,72.8,65.9,30.23,South,180,0.0,2.0,79,0.00,,---,0.00,VWS V14.00,2013-04-26 13:30:00,
2013-04-26 10:00:00,74.8,65.2,30.24,NNW,338,0.0,4.0,72,0.00,,---,0.00,VWS V14.00,2013-04-26 14:00:00,
2013-04-26 10:30:00,76.9,64.2,30.25,WSW,248,0.0,1.0,65,0.00,,---,0.00,VWS V14.00,2013-04-26 14:30:00,
2013-04-26 11:00:00,78.9,65.7,30.25,NW,315,0.0,3.0,64,0.00,,---,0.00,VWS V14.00,2013-04-26 15:00:00,
2013-04-26 11:30:00,80.9,65.7,30.25,NNW,338,0.0,4.0,60,0.00,,---,0.00,VWS V14.00,2013-04-26 15:30:00,
2013-04-26 12:00:00,82.8,66.5,30.25,NW,315,0.0,4.0,58,0.00,,---,0.00,VWS V14.00,2013-04-26 16:00:00,
2013-04-26 12:30:00,84.0,65.1,30.24,North,0,0.0,7.0,53,0.00,,---,0.00,VWS V14.00,2013-04-26 16:30:00,
2013-04-26 13:00:00,84.7,65.1,30.23,NNW,338,0.0,4.0,52,0.00,,---,0.00,VWS V14.00,2013-04-26 17:00:00,
2013-04-26 13:30:00,84.7,65.7,30.22,NW,315,0.0,5.0,53,0.00,,---,0.00,VWS V14.00,2013-04-26 17:30:00,
2013-04-26 14:00:00,86.0,65.8,30.21,North,0,0.0,6.0,51,0.00,,---,0.00,VWS V14.00,2013-04-26 18:00:00,
2013-04-26 14:30:00,85.0,66.5,30.20,NNE,22,0.0,3.0,54,0.00,,---,0.00,VWS V14.00,2013-04-26 18:30:00,
2013-04-26 15:00:00,86.8,65.9,30.19,NNE,22,0.0,5.0,50,0.00,,---,0.00,VWS V14.00,2013-04-26 19:00:00,
2013-04-26 15:30:00,87.2,65.7,30.18,NNE,22,0.0,5.0,49,0.00,,---,0.00,VWS V14.00,2013-04-26 19:30:00,
2013-04-26 16:00:00,86.4,65.0,30.18,NE,45,0.0,4.0,49,0.00,,---,0.00,VWS V14.00,2013-04-26 20:00:00,
2013-04-26 16:30:00,84.8,64.1,30.17,ENE,68,0.0,6.0,50,0.00,,---,0.00,VWS V14.00,2013-04-26 20:30:00,
2013-04-26 17:00:00,83.7,64.2,30.17,NE,45,0.0,6.0,52,0.00,,---,0.00,VWS V14.00,2013-04-26 21:00:00,
2013-04-26 17:30:00,84.4,64.9,30.17,NNE,22,0.0,5.0,52,0.00,,---,0.00,VWS V14.00,2013-04-26 21:30:00,
2013-04-26 18:00:00,82.9,65.1,30.17,ESE,112,1.0,5.0,55,0.00,,---,0.00,VWS V14.00,2013-04-26 22:00:00,
2013-04-26 18:30:00,81.1,65.4,30.18,ENE,68,0.0,6.0,59,0.00,,---,0.00,VWS V14.00,2013-04-26 22:30:00,
2013-04-26 19:00:00,79.4,66.2,30.18,East,90,0.0,13.0,64,0.00,,---,0.00,VWS V14.00,2013-04-26 23:00:00,
2013-04-26 19:30:00,77.9,66.5,30.19,NNE,22,0.0,6.0,68,0.00,,---,0.00,VWS V14.00,2013-04-26 23:30:00,
2013-04-26 20:00:00,76.5,66.4,30.19,NE,45,0.0,9.0,71,0.00,,---,0.00,VWS V14.00,2013-04-27 00:00:00,
2013-04-26 20:30:00,75.4,66.2,30.20,NE,45,0.0,3.0,73,0.00,,---,0.00,VWS V14.00,2013-04-27 00:30:00,
2013-04-26 21:00:00,74.6,66.9,30.20,NNE,22,0.0,1.0,77,0.00,,---,0.00,VWS V14.00,2013-04-27 01:00:00,
2013-04-26 21:30:00,73.6,66.7,30.22,NNE,22,0.0,1.0,79,0.00,,---,0.00,VWS V14.00,2013-04-27 01:30:00,
2013-04-26 22:00:00,72.9,67.1,30.23,NNE,22,0.0,3.0,82,0.00,,---,0.00,VWS V14.00,2013-04-27 02:00:00,
2013-04-26 22:30:00,72.2,66.8,30.24,North,0,0.0,1.0,83,0.00,,---,0.00,VWS V14.00,2013-04-27 02:30:00,
2013-04-26 23:00:00,71.4,66.7,30.24,North,0,0.0,0.0,85,0.00,,---,0.00,VWS V14.00,2013-04-27 03:00:00,
2013-04-26 23:30:00,70.6,66.2,30.24,North,0,0.0,0.0,86,0.00,,---,0.00,VWS V14.00,2013-04-27 03:30:00,